Location: Bright Skies Observatory
(38.9689°N, 77.0681°W)
Time: 22:43:26
(UTC-04:00)

Daily predictions for brighter satellites

Satellite Brightness Start Highest point End
(mag) Time Altitude Azimuth Time Altitude Azimuth Time Altitude Azimuth
Helios 1A 3.2 20:09:53 10° S 20:14:03 78° WSW 20:18:14 10° NNW
Cosmos 1809 Rocket 4.5 20:08:57 10° S 20:15:03 67° E 20:21:08 10° NNE
NOSS 3-4 (A) 4.3 20:08:56 10° NNW 20:15:35 44° NE 20:22:34 10° ESE
NOSS 3-4 (C) 4.4 20:09:03 10° NNW 20:15:42 43° NE 20:22:40 10° ESE
Cosmos 1892 Rocket 4.1 20:12:02 10° N 20:16:17 40° ENE 20:20:30 10° SSE
Resurs 1-3 3.6 20:13:21 10° SSE 20:17:44 85° ENE 20:22:08 10° NNW
Okean 2 4.1 20:15:11 10° N 20:19:03 35° ENE 20:22:52 10° SE
Cosmos 1602 4.4 20:15:48 10° SSW 20:19:42 62° W 20:23:38 10° N
Cosmos 1455 Rocket 3.7 20:17:33 10° SSE 20:21:26 33° E 20:25:20 10° NNE
Cosmos 1025 Rocket 3.0 20:17:30 10° N 20:21:54 77° E 20:26:13 10° S
Cosmos 2219 3.4 20:16:46 10° NNW 20:22:24 79° WSW 20:28:00 10° SSE
Cosmos 1975 4.5 20:21:19 10° SE 20:23:52 16° E 20:26:27 10° NE
Spot 2 Rocket 4.0 20:18:54 10° S 20:23:56 64° WSW 20:29:01 10° NNW
Cosmos 1570 Rocket 4.3 20:22:24 10° S 20:27:28 48° ESE 20:32:32 10° NNE
Resurs 01 Rocket 2.7 20:28:05 10° S 20:32:21 48° W 20:36:40 10° NNW
Cosmos 1934 Rocket 4.0 20:26:49 10° S 20:32:49 62° E 20:38:55 10° NNE
Cosmos 1461 4.1 20:31:01 10° N 20:34:26 25° NE 20:37:13 13° ESE
Meteor 2-4 Rocket 3.8 20:28:45 10° N 20:34:37 86° E 20:40:33 10° S
Envisat 4.4 20:31:01 10° ESE 20:34:37 21° ENE 20:38:20 10° NNE
Lacrosse 5 rocket 3.1 20:32:21 10° NNW 20:34:56 17° NNE 20:37:26 10° ENE
Cosmos 1315 Rocket 3.8 20:31:31 10° SSW 20:35:24 52° WNW 20:39:22 10° N
Cosmos 2278 3.9 20:33:32 10° S 20:38:58 50° ESE 20:44:27 10° NNE
Cosmos 1697 Rocket 4.0 20:36:06 10° SE 20:39:40 17° E 20:43:14 10° ENE
Tiangong 1 1.7 20:38:39 10° W 20:41:42 51° NNW 20:44:42 10° ENE
CZ-4 DEB 4.0 20:42:04 16° ESE 20:43:42 24° ENE 20:46:19 10° NNE
DELTA 2 R/B (1) 3.6 20:38:21 10° W 20:43:57 83° N 20:49:03 12° E
NOSS 7 (E) 4.3 20:42:01 10° SSW 20:45:31 63° ESE 20:48:51 10° NE
USA 186 1.5 20:44:38 10° SSE 20:47:48 75° ENE 20:50:48 10° N
H-2A R/B 2.8 20:45:42 10° SSE 20:49:33 88° WSW 20:53:29 10° NNW
OTV 4 0.3 20:47:44 10° W 20:50:42 73° S 20:52:22 23° ESE
CZ-4B DEB 4.1 20:47:56 10° S 20:51:03 41° W 20:54:11 10° NNW
Meteor 1-23 Rocket 4.5 20:46:03 10° NNW 20:51:41 74° W 20:57:21 10° S
Cosmos 2369 3.7 20:46:19 10° S 20:51:51 57° ESE 20:57:25 10° NNE
ATLAS CENTAUR R/B 4.5 20:49:59 10° W 20:53:54 22° NW 20:57:46 10° N
Delta 2 Rocket 4.2 20:48:37 10° W 20:54:07 58° S 20:57:38 20° ESE
Cosmos 1939 Rocket 3.9 20:52:33 19° ESE 20:54:40 29° ENE 20:58:17 10° N
Cosmos 1544 Rocket 3.9 20:50:37 10° SSW 20:54:57 70° W 20:59:22 10° N
Iridium 4 Rocket 3.9 20:51:19 10° NNE 20:56:10 39° E 20:59:35 16° SE
OAO 2 Rocket 3.9 20:56:36 10° SW 21:01:16 39° SSE 21:03:59 22° ESE
Cosmos 1980 Rocket 3.8 21:02:28 15° E 21:02:28 15° E 21:04:34 10° ENE
CZ-2D R/B 4.1 21:00:48 10° S 21:04:32 50° W 21:08:19 10° NNW
ERS-1 Rocket 3.0 21:07:31 18° SSE 21:11:07 60° ENE 21:16:04 10° N
Hubble Space Telescope 2.7 21:08:43 10° SW 21:11:16 16° S 21:12:19 15° S
Cosmos 1898 Rocket 4.4 21:07:51 10° N 21:12:37 32° ENE 21:14:34 25° ESE
SL-24 R/B - RUBIN 2 4.5 21:08:58 10° S 21:14:26 49° ESE 21:20:33 10° NE
Cosmos 1605 Rocket 4.1 21:09:23 10° S 21:15:45 86° W 21:22:05 10° N
Cosmos 1346 Rocket 3.4 21:14:07 10° NNW 21:17:58 55° W 21:21:51 10° S
Cosmos 2061 Rocket 4.5 21:15:45 21° SE 21:19:21 39° E 21:25:06 10° NNE
Cosmos 2100 Rocket 4.3 21:17:20 18° SSE 21:21:42 45° E 21:27:35 10° NNE
RESURS DK-1 4.1 21:20:10 10° N 21:23:03 18° NE 21:23:21 18° ENE
Cosmos 2227 Rocket 2.2 21:23:13 10° NNW 21:28:53 81° WSW 21:32:23 24° SSE
YAOGAN 11 4.2 21:26:25 21° S 21:29:28 77° WSW 21:33:59 10° NNW
ALOS 4.3 21:28:14 10° SSW 21:32:10 27° W 21:36:07 10° NW
Cosmos 468 Rocket 4.0 21:29:32 19° S 21:33:01 52° ESE 21:38:01 10° NNE
Cosmos 1500 3.0 21:34:20 52° SSE 21:35:07 73° E 21:38:53 10° NNE
Cosmos 1825 Rocket 4.3 21:34:21 10° N 21:38:16 35° ENE 21:38:16 35° ENE
BREEZE-M DEB (TANK) 3.9 21:22:28 10° SW 21:39:21 83° SSE 21:42:56 20° ENE
Cosmos 1814 Rocket 4.1 21:37:53 32° SSE 21:40:01 52° ESE 21:45:11 10° NNE
Cosmos 1656 3.5 21:34:45 10° SSW 21:40:23 82° ESE 21:45:59 10° NNE
Cosmos 2082 3.9 21:35:54 10° NNW 21:41:29 68° WSW 21:44:33 27° S
Cosmos 2297 Rocket 2.2 21:39:05 10° NNW 21:44:46 84° WSW 21:47:09 36° SSE
USA 215 4.2 21:42:02 21° ENE 21:45:30 36° NNE 21:51:20 10° NW
H-2A R/B 1.7 21:49:23 72° SE 21:49:45 81° ENE 21:53:53 10° N
Lacrosse 5 2.8 21:45:57 10° NNW 21:50:35 35° NE 21:51:36 31° ENE
Cosmos 1340 4.1 21:49:15 10° N 21:51:29 27° NE 21:51:29 27° NE
SPOT 5 2.9 21:52:31 54° SE 21:53:37 73° ENE 21:58:32 10° N
deb Chang Zheng 4 3.6 21:50:55 10° N 21:55:24 82° WNW 21:57:05 38° SSW
Cosmos 1515 4.4 21:54:49 10° NNW 21:58:33 50° W 21:59:09 45° SW
Cosmos 858 Rocket 4.4 21:53:47 10° NNW 21:59:06 76° ENE 21:59:55 62° SE
Cosmos 2298 Rocket 3.9 21:54:24 10° NNW 21:59:44 87° WSW 22:00:56 55° SSE
Cosmos 1459 Rocket 3.8 21:59:01 28° S 22:02:23 89° E 22:08:30 10° N
Cosmos 1743 3.4 22:06:26 51° N 22:06:26 51° N 22:09:26 10° N
H-2A R/B 3.3 22:10:13 25° NE 22:10:13 25° NE 22:13:24 10° NNE
YAOGAN 6 3.7 22:12:12 42° NNW 22:12:12 42° NNW 22:14:45 10° NNW
Envisat 3.9 22:11:14 30° SSW 22:13:18 45° W 22:18:10 10° NNW
Cosmos 1461 4.4 22:10:09 10° NW 22:13:33 26° WSW 22:13:43 26° WSW
Lacrosse 5 rocket 2.3 22:10:51 10° NW 22:13:22 38° WNW 22:13:22 38° WNW
Cosmos 2098 Rocket 4.2 22:14:27 56° SE 22:15:29 62° E 22:21:40 10° NNE
MetOp-A 4.1 22:15:54 62° SSW 22:16:44 77° WSW 22:22:07 10° NNW
GEOS 3 Rocket 4.4 22:11:59 10° NE 22:15:08 37° NE 22:15:08 37° NE
Tiangong 1 3.7 22:15:33 10° WNW 22:16:48 20° NW 22:16:48 20° NW
Cosmos 1937 Rocket 3.4 22:15:38 10° NNW 22:20:55 86° WSW 22:21:02 85° SSW
Cosmos 1697 Rocket 3.1 22:17:28 10° SW 22:23:03 60° WNW 22:28:40 10° NNE
Cosmos 2058 Rocket 4.4 22:25:44 32° NNE 22:25:44 32° NNE 22:28:14 10° NNE
Cosmos 1802 Rocket 4.2 22:20:59 34° SSW 22:23:58 73° W 22:30:25 10° N
SL-16 R/B 4.3 22:29:58 13° NE 22:29:58 13° NE 22:30:42 10° NE
Cosmos 2150 Rocket 4.4 22:21:52 10° NNW 22:26:54 55° WSW 22:27:17 53° WSW
SPOT 1/Viking Rocket 3.5 22:28:06 82° N 22:28:06 82° N 22:33:06 10° NNW
NOAA 11 4.1 22:29:44 83° NE 22:29:44 83° NE 22:35:06 10° NNW
DELTA 2 R/B (1) 3.7 22:24:53 10° W 22:29:48 64° WSW 22:29:48 64° WSW
SL-08 R/B 4.4 22:30:44 71° S 22:31:32 90° E 22:37:45 10° N
ASTEX 1 3.8 22:27:49 10° N 22:32:45 60° W 22:33:04 59° W
SL-08 RB Rocket 4.5 22:35:12 48° N 22:35:12 48° N 22:38:37 10° N
Cosmos 990 Rocket 4.2 22:33:09 10° NNW 22:37:48 69° NW 22:37:48 69° NW
Terra 3.3 22:40:16 28° NNE 22:40:16 28° NNE 22:42:53 10° N
Cosmos 1980 Rocket 2.4 22:44:07 63° W 22:44:40 66° WNW 22:50:21 10° NNE
Cosmos 2016 Rocket 4.4 22:43:28 45° SW 22:45:06 58° W 22:51:12 10° N
CZ-4B R/B 4.2 22:40:39 10° N 22:44:01 46° N 22:44:01 46° N
ARGOS 3.5 22:49:32 62° WNW 22:49:32 62° WNW 22:54:23 10° NNW
Tsikada Rocket 4.4 23:06:33 10° NNW 23:12:34 61° WNW 23:12:34 61° WNW
Cosmos 2322 Rocket 3.8 23:18:34 27° NNE 23:18:34 27° NNE 23:21:01 10° NNE
Cosmos 2263 Rocket 3.6 23:11:21 10° N 23:14:41 30° NNE 23:14:41 30° NNE
Milstar 3 Cent rocket 4.4 23:14:32 10° W 23:26:27 37° SW 23:26:27 37° SW
USA 215 3.6 23:29:23 60° WNW 23:29:23 60° WNW 23:34:42 10° NW
Lacrosse 5 4.0 23:28:51 10° WNW 23:30:48 22° WNW 23:30:48 22° WNW
H-2A R/B 4.1 23:50:51 22° NW 23:50:51 22° NW 23:53:01 10° NNW
